Location: Saint Mary
(48.7436°N, 113.4291°W)
Time: 22:09:28
(UTC+00:00)

Vanguard 1 - All Passes

Search period start: 24 May 2022 00:00
Search period end: 03 June 2022 00:00
Orbit: 648 x 3833 km, 34.3° (Epoch: 23 May)

Date Brightness Start Highest point End Pass type
(mag) Time Alt. Az. Time Alt. Az. Time Alt. Az.
24 May - 06:29:04 10° SSE 06:35:48 15° SE 06:44:02 10° E visible
24 May - 08:41:59 10° SSW 08:55:40 39° SSE 09:15:09 10° E visible
24 May - 11:01:13 10° WSW 11:18:58 53° S 11:41:04 10° ESE visible
24 May - 13:23:36 10° W 13:43:42 47° SSW 14:03:43 10° SE daylight
24 May - 15:49:40 10° W 16:06:34 27° SW 16:21:18 10° S daylight
25 May - 06:46:41 10° S 06:55:30 20° SE 07:07:17 10° E visible
25 May - 09:01:53 10° SW 09:16:01 43° SSE 09:36:25 10° E visible
25 May - 11:21:46 10° WSW 11:39:46 53° S 12:01:51 10° ESE daylight
25 May - 13:44:37 10° W 14:04:18 43° SSW 14:23:43 10° SE daylight
25 May - 16:12:01 10° W 16:26:32 21° SW 16:39:31 10° S daylight
26 May - 07:05:22 10° S 07:15:20 25° SE 07:29:32 10° E visible
26 May - 09:22:00 10° SW 09:36:30 47° SSE 09:57:33 10° E visible
26 May - 11:42:25 10° WSW 12:00:35 52° S 12:22:29 10° ESE daylight
26 May - 14:05:46 10° W 14:24:47 38° SSW 14:43:26 10° SSE daylight
26 May - 16:35:30 10° W 16:46:24 16° SW 16:56:28 10° SSW daylight
27 May - 07:24:36 10° SSW 07:35:20 31° SE 07:51:18 10° E visible
27 May - 09:42:17 10° SW 09:57:07 50° SSE 10:18:36 10° ESE visible
27 May - 12:03:10 10° W 12:21:22 50° SSW 12:42:58 10° SE daylight
27 May - 14:27:07 10° W 14:45:09 33° SW 15:02:47 10° SSE daylight
27 May - 17:03:22 10° WSW 17:06:10 10° WSW 17:08:54 10° SW daylight
28 May - 05:33:08 10° SE 05:36:27 11° ESE 05:40:13 10° ESE visible
28 May - 07:44:13 10° SSW 07:55:28 36° SSE 08:12:48 10° E visible
28 May - 10:02:40 10° WSW 10:17:48 51° S 10:39:33 10° ESE visible
28 May - 12:24:00 10° W 12:42:06 47° SSW 13:03:14 10° SE daylight
28 May - 14:48:48 10° W 15:05:24 27° SW 15:21:39 10° S daylight
29 May - 05:49:45 10° SSE 05:56:08 16° SE 06:04:29 10° E visible
29 May - 08:04:06 10° SW 08:15:44 40° SSE 08:34:07 10° E visible
29 May - 10:23:10 10° WSW 10:38:33 52° S 11:00:23 10° ESE visible
29 May - 12:44:55 10° W 13:02:46 42° SSW 13:23:15 10° SE daylight
29 May - 15:11:02 10° W 15:25:32 22° SW 15:39:47 10° S daylight
30 May - 06:08:13 10° S 06:15:56 21° SE 06:26:57 10° E visible
30 May - 08:24:10 10° SW 08:36:09 44° SSE 08:55:18 10° E visible
30 May - 10:43:45 10° WSW 10:59:20 50° S 11:21:05 10° ESE visible
30 May - 13:05:59 10° W 13:23:20 37° SSW 13:42:57 10° SSE daylight
30 May - 15:34:21 10° W 15:45:34 16° SW 15:56:39 10° SSW daylight
31 May - 06:27:23 10° SSW 06:35:53 27° SE 06:48:48 10° E visible
31 May - 08:44:24 10° SW 08:56:41 47° SSE 09:16:23 10° ESE visible
31 May - 11:04:25 10° WSW 11:20:06 48° S 11:41:36 10° SE daylight
31 May - 13:27:16 10° W 13:43:49 32° SW 14:02:16 10° SSE daylight
31 May - 16:01:20 10° WSW 16:05:31 11° SW 16:09:41 10° SW daylight
01 Jun - 06:46:57 10° SSW 06:55:58 32° SSE 07:10:20 10° E visible
01 Jun - 09:04:45 10° WSW 09:17:18 48° S 09:37:23 10° ESE visible
01 Jun - 11:25:10 10° W 11:40:50 45° SSW 12:01:53 10° SE daylight
01 Jun - 13:48:53 10° W 14:04:12 27° SW 14:21:02 10° S daylight
02 Jun - 04:53:44 10° SSE 04:57:20 12° SE 05:01:36 10° ESE visible
02 Jun - 07:06:47 10° SW 07:16:11 36° SSE 07:31:39 10° E visible
02 Jun - 09:25:12 10° WSW 09:37:59 49° S 09:58:15 10° ESE visible
02 Jun - 11:46:02 10° W 12:01:32 40° SSW 12:21:54 10° SE daylight
02 Jun - 14:11:04 10° W 14:24:29 21° SW 14:39:01 10° S daylight
